Tracking 33744 objects as of 12-Apr-2026
HD Live streaming from Space Station
objects crossing your sky now

STARLINK-4699

Track STARLINK-4699 now!
10-day predictions
STARLINK-4699 is classified as:


NORAD ID: 53716
Int'l Code: 2022-107S
Perigee: 545.8 km
Apogee: 547.9 km
Inclination: 53.2 °
Period: 95.4 minutes
Semi major axis: 6917 km
RCS: Unknown
Launch date: September 5, 2022
Source: United States (US)
Launch site: AIR FORCE EASTERN TEST RANGE (AFETR)
Your satellite tracking list
Your tracking list is empty




NASA's NSSDC Master Catalog

Two Line Element Set (TLE):
1 53716U 22107S   26101.71369171  .00000787  00000-0  67498-4 0  9999
2 53716  53.2156 105.5454 0001534  67.8511 292.2644 15.08852026199398
Source of the keplerian elements: AFSPC